New Philadelphia, OH

8:50 PM EST on December 15, 2017 (GMT -0500)
Clever

Weather History for KPHD - February, 2015

Change the Weather History Date:

Saturday, February 14, 2015

  Actual Average Record
Temperature  
Mean Temperature 17 °F 31 °F  
Max Temperature 30 °F 41 °F 68 °F (1990)
Min Temperature 4 °F 22 °F -2 °F (1981)
Degree Days  
Heating Degree Days 48 34  
Month to date heating degree days 546 484  
Since 1 July heating degree days 3875 3756  
Cooling Degree Days 0 0  
Month to date cooling degree days 0 0  
Year to date cooling degree days 0 0  
Moisture  
Dew Point 12 °F    
Average Humidity 66    
Maximum Humidity 81    
Minimum Humidity 50    
Precipitation  
Precipitation 0.02 in 0.07 in 1.12 in (1984)
Month to date precipitation 0.88 1.15  
Year to date precipitation 2.68 3.75  
Sea Level Pressure  
Sea Level Pressure 29.77 in    
Wind  
Wind Speed 12 mph (West)    
Max Wind Speed 28 mph    
Max Gust Speed 38 mph    
Visibility 3 miles    
Events Fog , Snow    
T = Trace of Precipitation, MM = Missing Value Source: NWS Daily Summary

Daily Weather History Graph

Daily Weather History Graph

Search for Another Location

Airport or City:

Trip Planner

Search our weather history database for the weather conditions in past years. The results will help you decide how hot, cold, wet, or windy it might be!

Date:

Astronomy

Feb. 14, 2015 Rise Set
Actual Time 7:20 AM EST 5:59 PM EST
Civil Twilight 6:52 AM EST 6:27 PM EST
Nautical Twilight 6:20 AM EST 6:59 PM EST
Astronomical Twilight 5:49 AM EST 7:31 PM EST
Moon 3:22 AM EST (2/14) 1:31 PM EST (2/14)
Length of Visible Light 11h 34m
Length of Day
10h 38m
Waning Crescent, 24% of the Moon is Illuminated
Feb 14
Waning Crescent
Feb 18
New
Feb 25
First Quarter
Mar 5
Full
Mar 13
Last Quarter

Hourly Weather History & Observations

Time (EST) Temp. Windchill Dew Point Humidity Pressure Visibility Wind Dir Wind Speed Gust Speed Precip Events Conditions
12:53 AM 25.0 °F 17.1 °F 10.0 °F 53% 29.98 in 10.0 mi South 6.9 mph - N/A   Overcast
1:53 AM 25.0 °F 15.5 °F 9.0 °F 51% 29.95 in 10.0 mi SSW 9.2 mph - N/A   Overcast
2:53 AM 26.1 °F 17.6 °F 10.0 °F 51% 29.91 in 10.0 mi SSW 8.1 mph - N/A   Overcast
3:53 AM 26.1 °F 16.2 °F 10.9 °F 53% 29.88 in 10.0 mi SW 10.4 mph - N/A   Overcast
4:53 AM 27.0 °F 19.5 °F 12.0 °F 53% 29.84 in 10.0 mi South 6.9 mph 16.1 mph N/A   Overcast
5:53 AM 27.0 °F 18.0 °F 12.9 °F 56% 29.81 in 10.0 mi SSW 9.2 mph - N/A   Overcast
6:53 AM 27.0 °F 18.7 °F 15.1 °F 61% 29.78 in 10.0 mi SSW 8.1 mph - N/A   Overcast
7:15 AM 27.0 °F 17.3 °F 16.0 °F 63% 29.73 in 8.0 mi SSW 10.4 mph - 0.00 in Snow Light Snow
7:53 AM 26.1 °F 16.8 °F 19.0 °F 75% 29.76 in 2.5 mi SSW 9.2 mph - 0.00 in Snow Light Snow
8:02 AM 26.1 °F 16.8 °F 19.0 °F 75% 29.72 in 4.0 mi SW 9.2 mph - 0.00 in Snow Light Snow
8:18 AM 26.1 °F 16.8 °F 19.0 °F 75% 29.71 in 2.0 mi SSW 9.2 mph - 0.00 in Snow Light Snow
8:28 AM 26.1 °F 16.8 °F 19.0 °F 75% 29.70 in 1.2 mi SSW 9.2 mph - 0.00 in Snow Light Snow
8:37 AM 26.1 °F 17.6 °F 19.9 °F 78% 29.69 in 1.0 mi South 8.1 mph - 0.00 in Snow Light Snow
8:53 AM 26.1 °F 17.6 °F 19.9 °F 78% 29.72 in 1.0 mi South 8.1 mph - 0.00 in Snow Light Snow
9:51 AM 26.6 °F 16.2 °F 21.2 °F 80% 29.64 in 0.8 mi SSW 11.5 mph - 0.00 in Snow Light Snow
9:53 AM 27.0 °F 18.7 °F 21.0 °F 78% 29.67 in 0.8 mi SW 8.1 mph - 0.00 in Snow Light Snow
9:59 AM 27.0 °F 17.3 °F 21.0 °F 78% 29.63 in 1.2 mi SSW 10.4 mph 17.3 mph 0.00 in Snow Light Snow
10:37 AM 28.0 °F 19.3 °F 21.0 °F 75% 29.60 in 2.0 mi SSW 9.2 mph - 0.00 in Snow Light Snow
10:47 AM 28.4 °F 19.7 °F 21.2 °F 74% 29.60 in 1.8 mi SSW 9.2 mph - 0.00 in Snow Light Snow
10:53 AM 28.0 °F 20.0 °F 21.0 °F 75% 29.62 in 1.5 mi SSW 8.1 mph - 0.00 in Snow Light Snow
11:13 AM 28.0 °F 19.3 °F 21.9 °F 78% 29.58 in 1.0 mi SW 9.2 mph - 0.00 in Snow Light Snow
11:30 AM 28.0 °F 18.1 °F 23.0 °F 81% 29.57 in 0.5 mi SW 11.5 mph 17.3 mph 0.01 in Snow Snow
11:53 AM 28.9 °F 21.1 °F 23.0 °F 78% 29.58 in 0.8 mi SW 8.1 mph - 0.01 in Snow Light Snow
12:06 PM 28.9 °F 18.6 °F 23.0 °F 78% 29.54 in 1.2 mi SW 12.7 mph 19.6 mph 0.00 in Snow Light Snow
12:16 PM 30.0 °F 20.0 °F 23.0 °F 75% 29.54 in 2.0 mi SW 12.7 mph 25.3 mph 0.00 in Snow Light Snow
12:22 PM 30.0 °F 21.1 °F 23.0 °F 75% 29.53 in 1.0 mi WSW 10.4 mph 25.3 mph 0.00 in Snow Light Snow
12:30 PM 28.9 °F 19.8 °F 23.0 °F 78% 29.53 in 0.5 mi WSW 10.4 mph - 0.00 in Snow Snow
12:41 PM 27.0 °F 13.2 °F 21.9 °F 81% 29.55 in 0.2 mi West 20.7 mph 29.9 mph 0.00 in Snow Heavy Snow
12:49 PM 26.6 °F 15.7 °F 21.2 °F 80% 29.54 in 0.2 mi WNW 12.7 mph 29.9 mph 0.01 in Fog , Snow Heavy Snow
12:53 PM 26.1 °F 15.0 °F 21.9 °F 84% 29.57 in 0.2 mi West 12.7 mph 21.9 mph 0.01 in Fog , Snow Heavy Snow
1:03 PM 27.0 °F 16.1 °F 21.0 °F 78% 29.53 in 1.0 mi West 12.7 mph 20.7 mph 0.00 in Snow Light Snow
1:05 PM 27.0 °F 15.6 °F 21.0 °F 78% 29.53 in 3.0 mi West 13.8 mph 20.7 mph 0.00 in Snow Light Snow
1:22 PM 28.9 °F 16.9 °F 19.9 °F 69% 29.52 in 1.8 mi West 17.3 mph 25.3 mph 0.00 in Snow Light Snow
1:24 PM 28.0 °F 16.5 °F 19.9 °F 72% 29.52 in 1.0 mi WNW 15.0 mph 25.3 mph 0.00 in Snow Light Snow
1:31 PM 26.1 °F 12.7 °F 19.9 °F 78% 29.53 in 0.2 mi NW 18.4 mph 35.7 mph 0.00 in Snow Heavy Snow
1:42 PM 25.0 °F 12.2 °F 19.9 °F 81% 29.52 in 0.2 mi WNW 16.1 mph 24.2 mph 0.00 in Snow Heavy Snow
1:53 PM 26.1 °F 12.0 °F 19.9 °F 78% 29.56 in 0.5 mi WNW 20.7 mph 29.9 mph 0.00 in Snow Snow
2:26 PM 21.0 °F 7.1 °F 14.0 °F 74% 29.60 in 1.0 mi NNW 16.1 mph 31.1 mph 0.00 in Snow Light Snow
2:38 PM 19.9 °F 5.2 °F 12.9 °F 74% 29.62 in 0.5 mi NNW 17.3 mph 27.6 mph 0.00 in Snow Snow
2:51 PM 19.4 °F 3.6 °F 12.2 °F 74% 29.64 in 1.0 mi NNW 19.6 mph 31.1 mph 0.00 in Snow Light Snow
2:53 PM 19.0 °F 3.2 °F 12.0 °F 74% 29.68 in 1.0 mi NNW 19.6 mph 31.1 mph 0.00 in Snow Light Snow
3:17 PM 18.0 °F 3.1 °F 7.0 °F 62% 29.69 in 1.8 mi NNW 16.1 mph 35.7 mph 0.00 in Snow Light Snow
3:23 PM 17.1 °F 0.1 °F 9.0 °F 71% 29.71 in 0.8 mi NW 20.7 mph 32.2 mph 0.00 in Snow Light Snow
3:42 PM 16.0 °F 0.1 °F 6.1 °F 65% 29.74 in 1.2 mi NNW 17.3 mph 29.9 mph 0.00 in Snow Light Snow
3:50 PM 15.8 °F -3.1 °F 5.0 °F 62% 29.75 in 0.8 mi NNW 25.3 mph 38.0 mph 0.00 in Snow Light Snow
3:53 PM 15.1 °F -1.1 °F 6.1 °F 68% 29.80 in 0.5 mi NNW 17.3 mph 38.0 mph 0.00 in Snow Snow
4:09 PM 15.1 °F -2.0 °F 6.1 °F 68% 29.77 in 1.0 mi NNW 19.6 mph 31.1 mph 0.00 in Snow Light Snow
4:19 PM 15.1 °F 1.1 °F 6.1 °F 68% 29.78 in 2.0 mi NW 12.7 mph 34.5 mph 0.00 in Snow Light Snow
4:27 PM 15.1 °F -1.6 °F 3.9 °F 61% 29.79 in 4.0 mi NNW 18.4 mph 27.6 mph 0.00 in   Overcast
4:53 PM 15.1 °F -2.0 °F 1.0 °F 54% 29.85 in 5.0 mi NNW 19.6 mph 28.8 mph 0.00 in   Haze
5:35 PM 12.9 °F -3.9 °F 3.0 °F 65% 29.87 in 1.5 mi NNW 17.3 mph 27.6 mph 0.00 in Snow Light Snow
5:38 PM 12.9 °F -3.4 °F 3.9 °F 67% 29.87 in 0.8 mi NNW 16.1 mph 27.6 mph 0.00 in Snow Light Snow
5:53 PM 12.9 °F -0.9 °F 6.1 °F 74% 29.93 in 0.8 mi NW 11.5 mph - 0.00 in Snow Light Snow
6:05 PM 12.9 °F -0.9 °F 6.1 °F 74% 29.90 in 0.5 mi NNW 11.5 mph 20.7 mph 0.00 in Snow Snow
6:23 PM 12.0 °F -4.5 °F 6.1 °F 77% 29.92 in 0.8 mi NNW 16.1 mph 24.2 mph 0.00 in Snow Light Snow
6:53 PM 12.0 °F - 3.0 °F 67% 29.99 in 0.8 mi North - - 0.00 in Snow Light Snow
6:55 PM 12.0 °F - 3.0 °F 67% 29.95 in 1.2 mi North - - 0.00 in Snow Light Snow
6:58 PM 12.0 °F - 3.0 °F 67% 29.96 in 4.0 mi North - - 0.00 in Snow Light Snow
7:05 PM 10.9 °F - 1.9 °F 67% 29.96 in 9.0 mi North - - 0.00 in   Scattered Clouds
7:53 PM 10.0 °F - -2.0 °F 58% 30.05 in 7.0 mi North - - 0.00 in   Scattered Clouds
8:53 PM 9.0 °F -9.0 °F -2.9 °F 59% 30.10 in 7.0 mi NW 17.3 mph 27.6 mph 0.00 in   Partly Cloudy
9:53 PM 8.1 °F -6.2 °F -2.9 °F 61% 30.12 in 9.0 mi NW 10.4 mph 21.9 mph N/A   Overcast
10:53 PM 7.0 °F -9.8 °F -4.0 °F 61% 30.15 in 6.0 mi NW 13.8 mph 20.7 mph N/A   Haze
10:58 PM 7.0 °F -9.1 °F -2.9 °F 64% 30.11 in 1.8 mi NW 12.7 mph - 0.00 in Snow Light Snow
11:01 PM 7.0 °F -11.0 °F -0.9 °F 70% 30.11 in 0.8 mi NW 16.1 mph - 0.00 in Snow Light Snow
11:13 PM 6.1 °F -14.3 °F -0.9 °F 73% 30.12 in 1.2 mi NNW 20.7 mph 29.9 mph 0.00 in Snow Light Snow
11:24 PM 6.1 °F -10.9 °F -4.0 °F 63% 30.13 in 3.0 mi NW 13.8 mph 24.2 mph 0.00 in Snow Light Snow
11:53 PM 5.0 °F -11.6 °F -5.1 °F 63% 30.19 in 10.0 mi NW 12.7 mph - 0.00 in   Partly Cloudy